Home   Weather   Wolfsburg   Past weeks

Flag for Germany Past Weather in Wolfsburg, Lower Saxony, Germany — Yesterday and Last 2 Weeks

Now
32 °F

Chilly.


Feels Like: 32 °F
Forecast: 17 / 26 °F
Wind: No wind

Location: Celle Airport

Current Time: Jan 21, 2017 at 3:27:16 am

Latest Report: Jan 21, 2017 at 2:20 am


Visibility: 2 mi

Pressure: 30.51 "Hg

Humidity: 93%

Dew Point: 30 °F

Location of WolfsburgLocation

Past Weather in Wolfsburg — Graph

°F

Wolfsburg Temperature Yesterday

Maximum temperature yesterday: 37 °F (at 1:20 pm)
Minimum temperature yesterday: 27 °F (at 2:20 am)
Average temperature yesterday: 32 °F

High & Low Weather Summary for the Past Weeks

 TemperatureHumidityPressure
High43 °F (Jan 12, 1:20 pm)100% (Jan 7, 6:20 pm)30.77 "Hg (Jan 7, 6:20 pm)
Low10 °F (Jan 6, 6:20 am)56% (Jan 19, 2:20 pm)28.94 "Hg (Jan 13, 5:20 am)
Average30 °F88%30.12 "Hg
* Reported Jan 6 2:20 am — Jan 21 2:20 am, Wolfsburg, Weather by CustomWeather, © 2017

Note: Actual official high and low records may vary slightly from our data, if they occured in-between our weather recording intervals... More about our weather records

Advertising

Wolfsburg Weather History for the Previous 24 Hours

Scroll right to see more
 ConditionsComfort  
Time TempWeatherWind HumidityBarometerVisibility
2:20 am
Sat, Jan 21
32 °FChilly.No wind93%30.51 "Hg2 mi
1:20 am32 °FChilly.No wind100%30.54 "Hg2 mi
9:20 pm
Fri, Jan 20
34 °FChilly.1 mph93%30.57 "Hg4 mi
8:20 pm34 °FChilly.No wind93%30.57 "Hg4 mi
7:20 pm34 °FPassing clouds.No wind93%30.57 "Hg5 mi
6:20 pm36 °FPassing clouds.1 mph87%30.57 "Hg5 mi
5:20 pm36 °FPassing clouds.No wind81%30.57 "Hg5 mi
4:20 pm37 °FPartly sunny.No wind75%30.57 "HgN/A
3:20 pm37 °FPartly sunny.3 mph75%30.57 "HgN/A
2:20 pm37 °FPartly sunny.2 mph75%30.57 "HgN/A
1:20 pm37 °FPartly sunny.No wind60%30.60 "HgN/A
12:20 pm36 °FPartly sunny.2 mph65%30.60 "HgN/A
11:20 am36 °FScattered clouds.2 mph60%30.60 "Hg5 mi
10:20 am30 °FScattered clouds.No wind75%30.60 "Hg5 mi
9:20 am28 °FScattered clouds.No wind86%30.63 "Hg5 mi
8:20 am28 °FScattered clouds.1 mph86%30.60 "Hg5 mi
7:20 am30 °FPassing clouds.1 mph86%30.60 "HgN/A
6:20 am28 °FPassing clouds.No wind93%30.60 "HgN/A
5:20 am28 °FPassing clouds.2 mph86%30.60 "HgN/A
4:20 am28 °FPassing clouds.No wind86%30.63 "HgN/A
3:20 am27 °FPassing clouds.No wind93%30.63 "HgN/A
Weather by CustomWeather, © 2017

See weather overviewHow to use our weather pages